Volver al catálogo

STARLINK-6174

ActivoComunicacionesVLEO
NORAD 57366·PAYLOAD·🇺🇸 United States

Lanzado Jul 16, 2023 desde Cape Canaveral Space Force Station

Loading…

Próximos Pases (próximas 24 horas)

TLE

ActualizadoSource: CelesTrak SupGP

Época: Sep 14, 2026, 21:35 UTC

1 57366C 23099AQ  26257.89979167  .00026195  00000+0  94892-3 0  2572
2 57366  42.9993 253.0842 0001220 274.0358 204.0874 15.27560160    12

Sigue STARLINK-6174 en tiempo real con AllMySat

Download on the App Store